Regional Weather Roundup
Issued by NWS

Home | Current Version | Previous Version | Graphics & Text | Print | Product List | Glossary On
Versions: 1 2 3 4 5 6 7 8 9 10 11 12 13 14 15 16 17 18 19 20 21 22 23 24 25 26 27 28 29 30 31 32 33 34 35 36 37 38 39 40 41 42 43 44 45 46 47 48 49 50
000
ASUS43 KLMK 181102
RWRKY
KENTUCKY REGIONAL WEATHER ROUNDUP
NATIONAL WEATHER SERVICE LOUISVILLE KY
700 AM EDT FRI AUG 18 2017

NOTE "FAIR" INDICATES FEW OR NO CLOUDS BELOW 12,000 FEET
WITH NO SIGNIFICANT WEATHER AND/OR OBSTRUCTIONS TO VISIBILITY.

KYZ001>023-026-027-061>063-070>075-181200-
WESTERN AND SOUTH CENTRAL KENTUCKY

CITY           SKY/WX    TMP DP  RH WIND       PRES   REMARKS
PADUCAH        PTCLDY    67  65  93 W7        29.94R
HENDERSON      CLEAR     66  65  96 SW5       29.93R
OWENSBORO      CLEAR     69  68  96 CALM      29.93R
HOPKINSVILLE   CLEAR     73  72  99 W6        29.95R
BOWLING GREEN  PTCLDY    74  73  97 W5        29.95R
GLASGOW        CLOUDY    73  73 100 W3        29.95R
$$

KYZ024-025-028>034-038-045-046-053-181200-
NORTH CENTRAL KENTUCKY

CITY           SKY/WX    TMP DP  RH WIND       PRES   REMARKS
LOUISVILLE/SDF PTCLDY    74  71  91 SW6       29.90R
LOUISVILLE/LOU CLEAR     72  72 100 S3        29.91R
FORT KNOX      PTCLDY    71  71 100 SW5       29.91R
$$

KYZ035>037-039>044-047>052-055>060-089>105-181200-
NORTHEAST KENTUCKY

CITY           SKY/WX    TMP DP  RH WIND       PRES   REMARKS
LEXINGTON      CLOUDY    74  71  91 W9        29.92R
COVINGTON      PTCLDY    73  73 100 SW3       29.89R FOG
FRANKFORT      CLOUDY    74  71  91 W6        29.90S
$$

KYZ054-064>069-076>088-106>120-181200-
SOUTHEAST KENTUCKY

CITY           SKY/WX    TMP DP  RH WIND       PRES   REMARKS
JACKSON        RAIN      72  71  97 VRB3      29.94S FOG
LONDON         HVY RAIN  73  71  93 SW5       29.95S FOG
SOMERSET       NOT AVBL
MIDDLESBORO    LGT RAIN  73  73 100 CALM      29.97S
MONTICELLO     CLOUDY    74  73  97 W10       29.97R
$$





USA.gov is the U.S. government's official web portal to all federal, state and local government web resources and services.